Helicity
52 90 114 134 135 161 145 104 93 84 65 54 52 52 64 70 59 69 73 67 56 62 67 61 37 42 48 53 55 65 63 62
103 128 145 184 176 182 135 117 98 88 64 32 25 29 49 59 75 76 67 60 52 53 60 51 38 44 47 41 49 54 60 60
150 174 163 172 196 179 154 146 131 85 46 22 29 57 62 64 83 74 52 47 43 43 54 47 42 54 39 46 46 51 56 58
199 209 184 212 210 191 161 164 123 87 61 46 61 74 72 76 83 86 71 47 40 46 45 57 55 51 47 44 56 50 69 61
258 263 238 232 218 198 179 160 124 92 64 73 60 47 53 59 95 98 87 60 50 44 42 55 57 63 44 56 64 93 62 63
313 310 283 261 229 199 177 160 126 84 77 81 66 64 63 91 100 86 82 76 61 48 53 62 60 73 55 64 80 65 78 72
312 337 344 298 223 203 180 147 98 82 87 81 75 78 82 89 91 102 95 87 83 61 60 74 75 81 71 83 99 84 55 52
380 429 362 261 216 183 151 109 94 83 86 80 69 83 75 71 89 115 100 97 84 74 78 79 89 94 89 98 87 61 62 69
399 376 299 232 190 154 114 99 101 84 74 69 80 78 73 78 94 107 108 97 96 83 86 86 83 90 85 92 95 93 89 41
366 320 245 207 164 106 94 104 100 65 75 77 73 73 71 73 79 88 84 73 74 73 87 82 93 117 70 76 95 111 99 102
322 261 216 169 123 92 105 100 76 66 75 71 66 66 68 76 85 82 66 65 64 75 80 91 116 95 70 85 118 113 105 132
278 224 190 143 97 101 104 87 69 75 72 65 72 63 65 80 83 79 71 67 64 71 88 109 117 84 102 124 138 91 121 144
234 214 174 98 92 101 91 58 74 73 64 73 68 64 65 72 80 80 73 69 69 71 97 111 118 95 122 146 145 146 151 170
233 201 118 78 100 91 72 54 80 66 72 75 66 62 64 69 86 84 76 75 69 74 96 113 98 104 132 138 139 195 178 199
201 140 75 107 86 85 70 65 80 71 70 76 70 64 62 79 92 88 82 82 72 72 104 111 81 109 130 137 135 196 208 222
160 102 106 109 95 79 71 74 80 67 75 80 66 68 73 84 90 95 93 88 85 85 107 109 68 105 147 106 131 206 245 264
117 120 125 104 101 82 68 83 82 68 80 74 66 77 76 77 86 92 91 92 99 97 102 118 77 113 88 42 108 196 231 306
137 132 103 102 90 89 82 89 75 78 75 68 72 77 77 74 82 85 88 101 122 120 124 127 111 97 90 59 55 153 222 289
116 98 107 104 94 94 99 88 78 75 72 73 71 80 77 75 79 81 91 113 122 142 145 148 139 125 85 78 72 134 179 237
Wind_Speed
10 12 17 20 26 32 39 44 49 53 58 60 62 66 65 72 79 82 79 80 78 77 76 77 73 71 71 69 69 67 67 69
10 12 16 21 26 33 39 44 50 55 60 63 64 68 67 74 80 81 80 78 76 76 78 76 73 71 70 68 66 69 68 71
8 10 13 19 25 33 39 46 52 57 61 62 61 63 66 71 75 78 78 77 78 78 78 76 73 71 69 68 66 70 65 67
7 8 11 19 25 32 38 45 51 58 62 61 64 61 65 71 75 77 79 80 81 79 77 74 72 69 68 66 63 65 67 61
7 9 11 18 25 32 39 45 52 58 60 63 65 70 76 69 69 72 75 78 81 78 77 74 71 68 68 64 63 55 62 60
10 11 13 19 25 31 39 47 53 57 58 61 65 68 67 65 68 72 77 77 77 78 78 75 72 68 65 63 64 62 55 49
8 13 16 21 26 33 40 47 52 54 57 60 64 68 69 69 71 75 77 75 76 79 78 74 71 68 68 67 59 56 56 47
16 16 17 21 26 33 40 45 50 53 56 60 62 68 69 68 69 70 75 76 79 80 77 76 71 66 66 60 58 61 49 32
19 19 20 23 27 33 38 43 48 51 54 58 62 65 68 71 70 68 70 72 74 73 74 73 70 68 64 57 56 53 38 28
23 22 23 25 28 33 37 41 46 49 54 57 63 64 68 72 72 73 72 74 75 71 72 75 70 59 61 59 53 39 16 13
25 25 26 27 30 33 37 40 45 48 53 57 61 65 67 69 71 75 76 76 74 71 73 73 66 51 67 60 46 24 19 22
28 28 28 29 31 33 37 41 44 49 52 56 61 65 66 67 71 74 75 73 73 73 71 67 61 39 51 54 36 26 22 20
30 29 29 29 30 33 37 39 44 47 51 56 61 63 64 67 70 74 74 74 72 73 66 64 50 37 48 47 27 30 26 27
30 29 28 28 31 33 35 38 44 46 51 57 61 61 64 66 69 73 73 72 73 72 67 56 37 37 50 35 27 27 26 26
30 29 27 29 31 33 35 39 42 46 52 57 59 61 64 65 68 72 74 71 73 72 64 50 36 39 53 31 30 29 27 28
31 28 29 31 33 34 36 39 42 46 52 55 57 59 63 64 67 70 71 71 71 70 59 51 34 38 46 32 34 28 30 28
31 30 31 33 34 35 37 38 43 46 51 54 55 59 62 64 67 70 73 71 70 69 59 49 37 39 39 38 31 28 31 30
33 34 35 36 36 37 37 40 43 47 50 52 55 58 61 64 66 69 73 72 67 72 60 46 40 38 41 42 35 29 32 33
37 38 38 39 39 39 40 42 45 47 50 51 53 57 60 62 65 67 70 71 70 69 63 45 40 37 41 40 33 30 32 33
Wind_Direction
65 57 42 39 32 26 18 17 14 12 9 7 5 5 6 5 2 2 2 1 1 0 359 357 357 355 354 353 351 349 344 339
50 44 43 38 30 23 19 17 13 12 7 3 3 4 7 5 4 5 4 4 4 2 1 0 360 359 357 356 353 349 346 343
67 57 46 36 31 22 20 17 15 11 7 6 7 8 9 8 8 8 9 8 6 5 3 3 3 2 1 359 356 350 350 348
97 80 57 38 29 25 22 19 18 12 9 10 10 12 11 10 10 10 10 9 8 7 6 6 5 5 3 1 359 356 350 352
120 99 69 39 30 30 23 21 18 12 12 13 12 10 7 12 12 11 11 11 10 10 9 9 8 7 5 4 1 1 357 354
132 112 72 40 41 32 25 20 17 15 17 18 15 15 16 16 13 12 11 12 13 12 11 11 10 10 10 7 3 2 2 1
99 87 64 51 42 33 26 20 19 20 21 20 20 18 17 15 14 13 13 14 14 13 13 14 14 13 11 9 9 8 6 10
114 100 76 59 48 35 25 23 22 24 24 24 23 21 19 18 17 17 15 15 14 14 15 15 17 17 16 15 15 11 17 23
110 102 86 69 51 36 31 29 27 28 28 28 26 24 23 21 22 21 20 19 17 17 18 18 19 20 20 21 21 24 29 293
108 96 88 69 51 42 38 35 33 34 32 30 27 27 25 25 26 25 25 22 20 22 23 21 24 26 25 27 29 34 343 350
101 94 87 66 55 47 44 42 39 38 36 33 31 30 30 30 30 28 27 25 26 27 26 26 29 33 29 32 37 29 345 28
101 92 80 69 58 53 50 47 45 41 39 36 34 33 34 35 33 31 30 30 30 30 31 33 36 31 36 37 39 344 5 356
99 88 82 73 64 60 55 55 48 47 43 39 37 38 38 37 36 34 33 33 34 34 38 39 41 33 40 42 14 351 358 349
95 88 83 76 70 66 66 61 53 51 46 42 41 43 41 40 39 37 37 38 38 38 42 45 36 35 44 37 6 26 13 3
100 95 90 79 78 79 75 65 60 55 49 47 47 46 45 45 44 41 41 42 41 42 47 50 39 41 50 27 4 27 26 11
111 104 95 87 88 87 78 70 64 59 54 52 52 51 49 50 48 46 45 46 46 47 53 54 40 44 51 16 5 37 45 31
118 110 103 101 98 91 84 77 68 65 59 57 57 55 54 53 51 49 48 50 50 51 57 58 48 46 37 13 29 36 43 46
126 121 115 109 104 96 92 81 77 69 65 63 61 60 58 57 54 53 52 53 55 54 60 61 57 45 35 17 20 45 55 53
125 122 116 112 105 102 94 87 81 76 69 69 67 64 62 61 59 58 57 58 58 58 60 64 62 50 36 31 34 39 51 57